Retour au catalogue

EUTE HOT BIRD 13C

HB 9

ActifCommunicationsGEO
NORAD 33459·PAYLOAD·🇪🇺 EU

Lancé Dec 20, 2008 depuis Guiana Space Centre

Loading…

TLE

FraisSource: Space-Track

Époque: Sep 14, 2026, 10:08 UTC

1 33459U 08065A   26257.42259115 -.00000290  00000-0  00000-0 0  9996
2 33459   3.1738  78.0622 0003572 101.4036 275.7750  1.00270487 48245

Suivez EUTE HOT BIRD 13C en temps réel avec AllMySat

Download on the App Store